Location: ?????????
(54.7630°N, 39.4991°E)
Time: 05:41:22
(UTC+00:00)

Cosmos 2219 Rocket - Pass Details

Date: 14 April 2026
Orbit: 827 x 845 km, 71.0° (Epoch: 10 May)

Event Time Altitude Azimuth Distance (km) Brightness Sun altitude
Rises 18:27:03 0° 244° (WSW) 3,362 5.6 -15.9°
Reaches altitude 10° 18:29:40 10° 253° (WSW) 2,433 5.0 -16.2°
Maximum altitude 18:34:47 36° 320° (NW) 1,301 3.9 -16.7°
Drops below altitude 10° 18:39:56 10° 26° (NNE) 2,451 4.9 -17.2°
Sets 18:42:36 0° 35° (NE) 3,390 5.5 -17.4°
